• In Russia
  • List of Countries
  • For 7 days
  • Water Temperature
  • Satellite Maps
  • Weather Map
  • Weather Widgets
  • user-avatar
    Login

    Hourly Weather Rangpur

    Today, 19 May, Sunday

    Time Temperature Precipitation Wind Pressure Humidity
    00:00 +28°C° 0 mm 3 mps 750 mmHg 88%
    01:00 +28°C° 1.4 mm 3 mps 750 mmHg 90%
    02:00 +28°C° 1.4 mm 3 mps 750 mmHg 93%
    03:00 +27°C° 1.4 mm 3 mps 750 mmHg 95%
    04:00 +27°C° 1.1 mm 3 mps 750 mmHg 95%
    05:00 +28°C° 1.1 mm 3 mps 750 mmHg 95%
    06:00 +28°C° 0 mm 2 mps 751 mmHg 97%
    07:00 +29°C° 1 mm 3 mps 751 mmHg 92%
    08:00 +32°C° 1 mm 4 mps 751 mmHg 87%
    09:00 +33°C° 1 mm 5 mps 752 mmHg 83%
    10:00 +34°C° 0.5 mm 5 mps 751 mmHg 76%
    11:00 +36°C° 0.5 mm 5 mps 751 mmHg 70%
    12:00 +37°C° 0.5 mm 5 mps 751 mmHg 64%
    13:00 +38°C° 0.3 mm 4 mps 751 mmHg 57%
    14:00 +40°C° 0.3 mm 4 mps 750 mmHg 50%
    15:00 +40°C° 0.3 mm 3 mps 750 mmHg 43%
    16:00 +39°C° 0.2 mm 3 mps 750 mmHg 47%
    17:00 +38°C° 0.2 mm 3 mps 750 mmHg 52%
    18:00 +37°C° 0.2 mm 2 mps 749 mmHg 57%
    19:00 +35°C° 0 mm 3 mps 750 mmHg 64%
    20:00 +34°C° 0 mm 3 mps 750 mmHg 71%
    21:00 +32°C° 0 mm 4 mps 751 mmHg 78%
    22:00 +32°C° 0.5 mm 4 mps 751 mmHg 81%
    23:00 +30°C° 0.5 mm 4 mps 751 mmHg 83%

    Tomorrow, 20 May, Monday

    Time Temperature Precipitation Wind Pressure Humidity
    00:00 +29°C° 0.5 mm 3 mps 752 mmHg 86%
    01:00 +29°C° 0.3 mm 3 mps 752 mmHg 87%
    02:00 +29°C° 0.3 mm 3 mps 751 mmHg 88%
    03:00 +28°C° 0.3 mm 3 mps 751 mmHg 89%
    04:00 +28°C° 0.4 mm 3 mps 751 mmHg 89%
    05:00 +28°C° 0.4 mm 3 mps 752 mmHg 89%
    06:00 +27°C° 0.4 mm 4 mps 752 mmHg 90%
    07:00 +29°C° 0.1 mm 4 mps 752 mmHg 84%
    08:00 +30°C° 0.1 mm 4 mps 752 mmHg 78%
    09:00 +33°C° 0.1 mm 4 mps 753 mmHg 72%
    10:00 +34°C° 0 mm 4 mps 753 mmHg 67%
    11:00 +35°C° 0 mm 3 mps 753 mmHg 63%
    12:00 +37°C° 0 mm 3 mps 752 mmHg 58%
    13:00 +38°C° 0 mm 3 mps 752 mmHg 55%
    14:00 +38°C° 0 mm 2 mps 751 mmHg 51%
    15:00 +39°C° 0 mm 2 mps 750 mmHg 48%
    16:00 +39°C° 0 mm 2 mps 750 mmHg 50%
    17:00 +38°C° 0 mm 2 mps 749 mmHg 52%
    18:00 +38°C° 0 mm 2 mps 749 mmHg 53%
    19:00 +36°C° 0 mm 2 mps 749 mmHg 58%
    20:00 +35°C° 0 mm 3 mps 750 mmHg 63%
    21:00 +33°C° 0 mm 3 mps 750 mmHg 68%
    22:00 +33°C° 0.3 mm 3 mps 750 mmHg 71%
    23:00 +31°C° 0.3 mm 3 mps 750 mmHg 75%

    Day after tomorrow, 21 May, Tuesday

    Time Temperature Precipitation Wind Pressure Humidity
    00:00 +30°C° 0.3 mm 3 mps 750 mmHg 78%
    01:00 +30°C° 0.3 mm 3 mps 750 mmHg 80%
    02:00 +29°C° 0.3 mm 3 mps 750 mmHg 81%
    03:00 +29°C° 0.3 mm 3 mps 749 mmHg 83%
    04:00 +28°C° 0.6 mm 4 mps 750 mmHg 85%
    05:00 +28°C° 0.6 mm 4 mps 750 mmHg 86%
    06:00 +28°C° 0.6 mm 4 mps 750 mmHg 88%
    07:00 +29°C° 0.7 mm 4 mps 751 mmHg 84%
    08:00 +32°C° 0.7 mm 5 mps 751 mmHg 80%
    09:00 +33°C° 0.7 mm 5 mps 752 mmHg 76%
    10:00 +34°C° 0 mm 4 mps 751 mmHg 72%
    11:00 +35°C° 0 mm 4 mps 751 mmHg 68%
    12:00 +36°C° 0 mm 4 mps 751 mmHg 65%
    13:00 +37°C° 0 mm 3 mps 750 mmHg 62%
    14:00 +37°C° 0 mm 3 mps 750 mmHg 60%
    15:00 +38°C° 0 mm 3 mps 749 mmHg 58%
    16:00 +38°C° 0 mm 2 mps 749 mmHg 60%
    17:00 +37°C° 0 mm 2 mps 748 mmHg 62%
    18:00 +37°C° 0 mm 2 mps 748 mmHg 64%
    19:00 +36°C° 0.4 mm 3 mps 748 mmHg 68%
    20:00 +34°C° 0.4 mm 3 mps 749 mmHg 72%
    21:00 +33°C° 0.4 mm 4 mps 750 mmHg 76%
    22:00 +32°C° 0.1 mm 4 mps 750 mmHg 77%
    23:00 +32°C° 0.1 mm 5 mps 750 mmHg 78%

    22 May, Wednesday

    Time Temperature Precipitation Wind Pressure Humidity
    00:00 +30°C° 0.1 mm 5 mps 750 mmHg 79%
    01:00 +30°C° 0.1 mm 5 mps 749 mmHg 81%
    02:00 +30°C° 0.1 mm 5 mps 749 mmHg 82%
    03:00 +30°C° 0.1 mm 4 mps 748 mmHg 84%
    04:00 +29°C° 1.9 mm 5 mps 749 mmHg 86%
    05:00 +29°C° 1.9 mm 5 mps 749 mmHg 87%
    06:00 +29°C° 1.9 mm 5 mps 749 mmHg 89%
    07:00 +29°C° 0.1 mm 5 mps 750 mmHg 87%
    08:00 +30°C° 0.1 mm 5 mps 751 mmHg 84%
    09:00 +32°C° 0.1 mm 5 mps 751 mmHg 81%
    10:00 +33°C° 0.1 mm 5 mps 751 mmHg 77%
    11:00 +34°C° 0.1 mm 5 mps 751 mmHg 73%
    12:00 +35°C° 0.1 mm 5 mps 750 mmHg 69%
    13:00 +36°C° 0 mm 5 mps 750 mmHg 67%
    14:00 +36°C° 0 mm 5 mps 749 mmHg 64%
    15:00 +37°C° 0 mm 4 mps 748 mmHg 62%
    16:00 +37°C° 0 mm 4 mps 748 mmHg 64%
    17:00 +36°C° 0 mm 3 mps 747 mmHg 66%
    18:00 +36°C° 0 mm 3 mps 747 mmHg 69%
    19:00 +34°C° 1.5 mm 4 mps 748 mmHg 74%
    20:00 +33°C° 1.5 mm 5 mps 748 mmHg 79%
    21:00 +30°C° 1.5 mm 6 mps 749 mmHg 84%
    22:00 +30°C° 3.2 mm 5 mps 749 mmHg 86%
    23:00 +29°C° 3.2 mm 5 mps 749 mmHg 89%

    23 May, Thursday

    Time Temperature Precipitation Wind Pressure Humidity
    00:00 +28°C° 3.2 mm 5 mps 749 mmHg 91%
    01:00 +28°C° 1 mm 5 mps 749 mmHg 90%
    02:00 +29°C° 1 mm 5 mps 749 mmHg 90%
    03:00 +29°C° 1 mm 4 mps 748 mmHg 90%
    04:00 +29°C° 0.8 mm 5 mps 749 mmHg 90%
    05:00 +29°C° 0.8 mm 5 mps 749 mmHg 90%
    06:00 +28°C° 0.8 mm 5 mps 749 mmHg 90%
    07:00 +29°C° 0.2 mm 5 mps 750 mmHg 88%
    08:00 +29°C° 0.2 mm 5 mps 751 mmHg 87%
    09:00 +30°C° 0.2 mm 5 mps 751 mmHg 85%
    10:00 +32°C° 0.1 mm 5 mps 751 mmHg 82%
    11:00 +32°C° 0.1 mm 5 mps 751 mmHg 79%
    12:00 +33°C° 0.1 mm 5 mps 750 mmHg 76%
    13:00 +34°C° 0.1 mm 5 mps 749 mmHg 73%
    14:00 +35°C° 0.1 mm 5 mps 749 mmHg 70%
    15:00 +36°C° 0.1 mm 5 mps 748 mmHg 67%
    16:00 +36°C° 0 mm 4 mps 747 mmHg 69%
    17:00 +35°C° 0 mm 3 mps 747 mmHg 71%
    18:00 +35°C° 0 mm 3 mps 747 mmHg 73%
    19:00 +33°C° 4.4 mm 4 mps 747 mmHg 79%
    20:00 +32°C° 4.4 mm 5 mps 748 mmHg 84%
    21:00 +29°C° 4.4 mm 6 mps 748 mmHg 90%
    22:00 +29°C° 2.5 mm 5 mps 749 mmHg 89%
    23:00 +29°C° 2.5 mm 4 mps 749 mmHg 89%

    24 May, Friday

    Time Temperature Precipitation Wind Pressure Humidity
    00:00 +29°C° 2.5 mm 3 mps 749 mmHg 88%
    01:00 +28°C° 2.4 mm 4 mps 749 mmHg 90%
    02:00 +28°C° 2.4 mm 4 mps 749 mmHg 92%
    03:00 +27°C° 2.4 mm 5 mps 748 mmHg 94%
    04:00 +27°C° 3.6 mm 5 mps 748 mmHg 94%
    05:00 +27°C° 3.6 mm 5 mps 749 mmHg 94%
    06:00 +27°C° 3.6 mm 5 mps 749 mmHg 94%
    07:00 +27°C° 3.5 mm 5 mps 750 mmHg 94%
    08:00 +27°C° 3.5 mm 6 mps 751 mmHg 93%
    09:00 +27°C° 3.5 mm 6 mps 751 mmHg 92%
    10:00 +28°C° 0.2 mm 6 mps 751 mmHg 90%
    11:00 +29°C° 0.2 mm 6 mps 751 mmHg 87%
    12:00 +30°C° 0.2 mm 6 mps 751 mmHg 85%
    13:00 +32°C° 0 mm 5 mps 750 mmHg 81%
    14:00 +33°C° 0 mm 5 mps 749 mmHg 77%
    15:00 +34°C° 0 mm 4 mps 748 mmHg 73%
    16:00 +34°C° 0.9 mm 4 mps 747 mmHg 76%
    17:00 +33°C° 0.9 mm 5 mps 747 mmHg 78%
    18:00 +32°C° 0.9 mm 5 mps 747 mmHg 81%
    19:00 +30°C° 1.1 mm 5 mps 747 mmHg 83%
    20:00 +29°C° 1.1 mm 5 mps 748 mmHg 85%
    21:00 +28°C° 1.1 mm 6 mps 748 mmHg 88%
    22:00 +28°C° 2.5 mm 5 mps 748 mmHg 89%
    23:00 +28°C° 2.5 mm 5 mps 748 mmHg 91%
    Show more